Location: Newark
(27.9675°N, 86.8869°E)
Time: 20:56:56
(UTC+00:00)

Courier 1B Rocket - Pass Details

Date: 22 October 2019
Orbit: 920 x 1202 km, 28.2° (Epoch: 19 November)

Event Time Altitude Azimuth Distance (km) Brightness Sun altitude
Rises 16:54:10 0° 199° (SSW) 3,790 - -67.6°
Reaches altitude 10° 16:59:13 10° 168° (SSE) 2,763 - -68.4°
Maximum altitude 17:01:17 11° 150° (SSE) 2,626 - -68.7°
Drops below altitude 10° 17:03:18 10° 131° (SE) 2,709 - -69.0°
Sets 17:08:04 0° 100° (E) 3,602 - -69.6°
